Southend-On-Sea, United Kingdom

3:24 PM BST on April 25, 2018 (GMT +0100)
Southend

Weather History for EGMC - March, 2014

Change the Weather History Date:

Saturday, March 29, 2014

  Actual Average Record
Temperature  
Mean Temperature 46 °F -  
Max Temperature 59 °F 55 °F 64 °F (2012)
Min Temperature 33 °F 40 °F 30 °F (2011)
Degree Days  
Heating Degree Days 19    
Moisture  
Dew Point 43 °F    
Average Humidity 80    
Maximum Humidity 100    
Minimum Humidity 59    
Precipitation  
Precipitation 0.00 in - - ()
Sea Level Pressure  
Sea Level Pressure 29.97 in    
Wind  
Wind Speed 5 mph ()    
Max Wind Speed 16 mph    
Max Gust Speed -    
Visibility 3.2 miles    
Events Fog    
Averages and records for this station are not official NWS values.
T = Trace of Precipitation, MM = Missing Value Source: Averaged Metar Reports

Daily Weather History Graph

Daily Weather History Graph

Search for Another Location

Airport or City:

Astronomy

Mar. 29, 2014 Rise Set
Actual Time 5:39 AM GMT 6:25 PM GMT
Civil Twilight 5:06 AM GMT 6:59 PM GMT
Nautical Twilight 4:25 AM GMT 7:39 PM GMT
Astronomical Twilight 3:42 AM GMT 8:22 PM GMT
Moon 4:48 AM GMT (3/29) 5:07 PM GMT (3/29)
Length of Visible Light 13h 53m
Length of Day
12h 45m
Waning Crescent, 2% of the Moon is Illuminated
Mar 29
Waning Crescent
Mar 30
New
Apr 7
First Quarter
Apr 15
Full
Apr 22
Last Quarter

Hourly Weather History & Observations

Time (GMT) Temp. Windchill Dew Point Humidity Pressure Visibility Wind Dir Wind Speed Gust Speed Precip Events Conditions
12:50 AM 39.2 °F - 37.4 °F 93% 30.01 in 0.5 mi Calm Calm - N/A Fog Fog
1:50 AM 39.2 °F - 37.4 °F 93% 30.01 in 0.2 mi Calm Calm - N/A Fog Fog
2:50 AM 37.4 °F - 35.6 °F 93% 30.01 in 0.2 mi Calm Calm - N/A Fog Fog
3:50 AM 35.6 °F - 33.8 °F 93% 30.01 in 0.1 mi Calm Calm - N/A Fog Fog
4:50 AM 33.8 °F - 33.8 °F 100% 29.98 in 0.1 mi Calm Calm - N/A Fog Fog
5:20 AM 33.8 °F - 32.0 °F 93% 30.01 in 0.1 mi Calm Calm - N/A Fog Fog
5:50 AM 33.8 °F - 33.8 °F 100% 30.01 in 0.2 mi Calm Calm - N/A Fog Fog
6:20 AM 35.6 °F - 33.8 °F 93% 30.01 in 0.2 mi Calm Calm - N/A Fog Fog
6:50 AM 37.4 °F - 37.4 °F 100% 30.01 in 0.4 mi Calm Calm - N/A Fog Fog
7:20 AM 41.0 °F - 39.2 °F 93% 30.01 in 0.4 mi Calm Calm - N/A Fog Fog
7:50 AM 46.4 °F - 44.6 °F 93% 30.01 in 1.4 mi Calm Calm - N/A   Mist
8:20 AM 48.2 °F - 46.4 °F 93% 30.01 in 1.6 mi East 4.6 mph - N/A   Mist
8:50 AM 51.8 °F - 50.0 °F 94% 30.01 in 1.9 mi East 9.2 mph - N/A   Mist
9:20 AM 53.6 °F - 48.2 °F 82% 30.01 in 2.5 mi East 9.2 mph - N/A   Haze
9:50 AM 55.4 °F - 50.0 °F 82% 30.01 in 2.8 mi East 10.4 mph - N/A   Haze
10:20 AM 55.4 °F - 48.2 °F 77% 30.01 in 4.3 mi ENE 10.4 mph - N/A   Unknown
10:50 AM 59.0 °F - 46.4 °F 63% 30.01 in 4.3 mi East 9.2 mph - N/A   Unknown
11:20 AM 59.0 °F - 46.4 °F 63% 30.01 in 4.3 mi East 10.4 mph - N/A   Unknown
11:50 AM 57.2 °F - 46.4 °F 67% 29.98 in 3.7 mi East 12.7 mph - N/A   Unknown
12:20 PM 59.0 °F - 48.2 °F 67% 29.98 in 3.7 mi East 12.7 mph - N/A   Unknown
12:50 PM 59.0 °F - 48.2 °F 67% 29.98 in 4.3 mi ENE 12.7 mph - N/A   Unknown
1:20 PM 59.0 °F - 46.4 °F 63% 29.95 in 4.3 mi East 15.0 mph - N/A   Unknown
1:50 PM 59.0 °F - 44.6 °F 59% 29.95 in 4.3 mi East 15.0 mph - N/A   Unknown
2:20 PM 59.0 °F - 44.6 °F 59% 29.95 in 5.0 mi East 15.0 mph - N/A   Unknown
2:50 PM 57.2 °F - 44.6 °F 63% 29.95 in 5.0 mi East 16.1 mph - N/A   Unknown
3:20 PM 57.2 °F - 46.4 °F 67% 29.95 in 5.6 mi East 16.1 mph - N/A   Unknown
3:50 PM 57.2 °F - 42.8 °F 59% 29.92 in 5.6 mi East 15.0 mph - N/A   Unknown
4:20 PM 57.2 °F - 44.6 °F 63% 29.92 in 5.6 mi East 15.0 mph - N/A   Unknown
4:50 PM 57.2 °F - 44.6 °F 63% 29.92 in 5.6 mi East 13.8 mph - N/A   Unknown
5:20 PM 55.4 °F - 44.6 °F 67% 29.92 in 5.6 mi East 16.1 mph - N/A   Unknown
5:50 PM 53.6 °F - 46.4 °F 77% 29.95 in 5.6 mi East 10.4 mph - N/A   Unknown
6:20 PM 51.8 °F - 44.6 °F 76% 29.95 in 5.0 mi East 10.4 mph - N/A   Unknown
6:50 PM 50.0 °F - 44.6 °F 82% 29.95 in 4.3 mi East 6.9 mph - N/A   Unknown
7:20 PM 48.2 °F - 42.8 °F 82% 29.95 in 4.3 mi ENE 5.8 mph - N/A   Unknown
8:20 PM 48.2 °F - 44.6 °F 87% 29.95 in 4.3 mi East 5.8 mph - N/A   Unknown
8:50 PM 48.2 °F - 44.6 °F 87% 29.95 in 5.0 mi East 3.5 mph - N/A   Unknown
9:20 PM 48.2 °F - 44.6 °F 87% 29.95 in 4.3 mi ENE 2.3 mph - N/A   Unknown
9:50 PM 48.2 °F - 44.6 °F 87% 29.95 in 4.3 mi ENE 2.3 mph - N/A   Unknown
10:50 PM 46.4 °F 44.3 °F 44.6 °F 93% 29.95 in 3.7 mi ENE 4.6 mph - N/A   Unknown
11:50 PM 42.8 °F - 41.0 °F 93% 29.92 in 3.7 mi North 2.3 mph - N/A   Unknown